When you browse on this site, cookies collect data to enhance your experience and personalize the content and advertising you see.
Visit our Privacy Policy to learn more. By continuing to use the site, you agree to this use of cookies and data.
  • In Hungary
  • List of Countries
  • For 7 days
  • Water Temperature
  • Weather Map
  • News
  • Weather Widgets
  • user-avatar
    Login

    Hourly Weather Apokin

    Today, 19 January, Sunday

    Time Temperature Precipitation Wind Pressure Humidity
    00:00 -2°C° 0 mm 3 mps 743 mmHg 82%
    01:00 -2°C° 0 mm 3 mps 744 mmHg 84%
    02:00 -2°C° 0 mm 3 mps 744 mmHg 85%
    03:00 -2°C° 0 mm 3 mps 744 mmHg 85%
    04:00 -1°C° 0 mm 3 mps 744 mmHg 85%
    05:00 -1°C° 0 mm 3 mps 744 mmHg 85%
    06:00 -1°C° 0 mm 3 mps 744 mmHg 87%
    07:00 -1°C° 0 mm 2 mps 745 mmHg 89%
    08:00 -1°C° 0 mm 2 mps 745 mmHg 90%
    09:00 -1°C° 0 mm 3 mps 745 mmHg 89%
    10:00 -1°C° 0 mm 3 mps 745 mmHg 87%
    11:00 -1°C° 0 mm 4 mps 745 mmHg 86%
    12:00 -1°C° 0 mm 4 mps 746 mmHg 85%
    13:00 -1°C° 0 mm 4 mps 746 mmHg 83%
    14:00 -1°C° 0 mm 4 mps 746 mmHg 82%
    15:00 -1°C° 0 mm 4 mps 746 mmHg 84%
    16:00 -1°C° 0 mm 4 mps 746 mmHg 85%
    17:00 -1°C° 0 mm 4 mps 747 mmHg 87%
    18:00 -1°C° 0 mm 4 mps 747 mmHg 87%
    19:00 -1°C° 0 mm 4 mps 747 mmHg 87%
    20:00 -1°C° 0 mm 4 mps 747 mmHg 87%
    21:00 -1°C° 0 mm 4 mps 747 mmHg 87%
    22:00 -1°C° 0 mm 4 mps 747 mmHg 88%
    23:00 -1°C° 0 mm 4 mps 747 mmHg 88%

    Tomorrow, 20 January, Monday

    Time Temperature Precipitation Wind Pressure Humidity
    00:00 -1°C° 0 mm 4 mps 748 mmHg 89%
    01:00 -1°C° 0 mm 4 mps 748 mmHg 90%
    02:00 -1°C° 0 mm 4 mps 748 mmHg 90%
    03:00 -1°C° 0 mm 4 mps 748 mmHg 90%
    04:00 -1°C° 0 mm 4 mps 748 mmHg 90%
    05:00 -1°C° 0 mm 4 mps 748 mmHg 90%
    06:00 -1°C° 0 mm 4 mps 748 mmHg 89%
    07:00 -1°C° 0 mm 4 mps 748 mmHg 89%
    08:00 -1°C° 0 mm 4 mps 748 mmHg 89%
    09:00 -1°C° 0 mm 4 mps 748 mmHg 89%
    10:00 -1°C° 0 mm 5 mps 748 mmHg 89%
    11:00 -1°C° 0 mm 5 mps 748 mmHg 89%
    12:00 -1°C° 0 mm 5 mps 748 mmHg 89%
    13:00 -1°C° 0 mm 5 mps 748 mmHg 90%
    14:00 -1°C° 0 mm 5 mps 748 mmHg 90%
    15:00 -1°C° 0 mm 5 mps 748 mmHg 87%
    16:00 -1°C° 0 mm 5 mps 748 mmHg 85%
    17:00 -1°C° 0 mm 5 mps 748 mmHg 83%
    18:00 -1°C° 0 mm 5 mps 747 mmHg 80%
    19:00 -2°C° 0 mm 5 mps 747 mmHg 77%
    20:00 -2°C° 0 mm 5 mps 746 mmHg 75%
    21:00 -2°C° 0 mm 5 mps 746 mmHg 74%
    22:00 -2°C° 0 mm 5 mps 745 mmHg 74%
    23:00 -2°C° 0 mm 5 mps 745 mmHg 74%

    Day after tomorrow, 21 January, Tuesday

    Time Temperature Precipitation Wind Pressure Humidity
    00:00 -2°C° 0 mm 5 mps 744 mmHg 74%
    01:00 -2°C° 0 mm 5 mps 743 mmHg 74%
    02:00 -2°C° 0 mm 5 mps 743 mmHg 74%
    03:00 -3°C° 0 mm 6 mps 742 mmHg 77%
    04:00 -2°C° 0 mm 6 mps 741 mmHg 80%
    05:00 -2°C° 0 mm 6 mps 740 mmHg 83%
    06:00 -2°C° 0 mm 6 mps 739 mmHg 85%
    07:00 -1°C° 0 mm 6 mps 739 mmHg 88%
    08:00 -1°C° 0 mm 6 mps 738 mmHg 90%
    09:00 +1°C° 0 mm 6 mps 738 mmHg 89%
    10:00 +2°C° 0 mm 6 mps 737 mmHg 89%
    11:00 +2°C° 0 mm 6 mps 737 mmHg 88%
    12:00 +2°C° 0 mm 6 mps 737 mmHg 88%
    13:00 +2°C° 0 mm 6 mps 736 mmHg 87%
    14:00 +3°C° 0 mm 6 mps 736 mmHg 87%
    15:00 +3°C° 0 mm 6 mps 735 mmHg 87%
    16:00 +3°C° 0 mm 6 mps 734 mmHg 88%
    17:00 +3°C° 0 mm 6 mps 733 mmHg 89%
    18:00 +3°C° 0.2 mm 6 mps 732 mmHg 88%
    19:00 +3°C° 0.2 mm 6 mps 731 mmHg 88%
    20:00 +3°C° 0.2 mm 7 mps 730 mmHg 88%
    21:00 +3°C° 0.8 mm 7 mps 730 mmHg 88%
    22:00 +3°C° 0.8 mm 7 mps 729 mmHg 89%
    23:00 +3°C° 0.8 mm 7 mps 729 mmHg 89%

    22 January, Wednesday

    Time Temperature Precipitation Wind Pressure Humidity
    00:00 0°C° 0.2 mm 7 mps 730 mmHg 88%
    01:00 -1°C° 0.2 mm 7 mps 730 mmHg 87%
    02:00 -3°C° 0.2 mm 7 mps 731 mmHg 85%
    03:00 -3°C° 0.1 mm 7 mps 731 mmHg 81%
    04:00 -3°C° 0.1 mm 7 mps 731 mmHg 76%
    05:00 -3°C° 0.1 mm 6 mps 731 mmHg 72%
    06:00 -4°C° 0 mm 6 mps 731 mmHg 73%
    07:00 -4°C° 0 mm 6 mps 731 mmHg 75%
    08:00 -4°C° 0 mm 6 mps 731 mmHg 77%
    09:00 -4°C° 0.1 mm 6 mps 731 mmHg 76%
    10:00 -4°C° 0.1 mm 6 mps 731 mmHg 76%
    11:00 -4°C° 0.1 mm 6 mps 731 mmHg 75%
    12:00 -4°C° 0.1 mm 6 mps 731 mmHg 76%
    13:00 -4°C° 0.1 mm 6 mps 731 mmHg 76%
    14:00 -4°C° 0.1 mm 6 mps 731 mmHg 77%
    15:00 -4°C° 0.1 mm 5 mps 731 mmHg 79%
    16:00 -4°C° 0.1 mm 5 mps 731 mmHg 82%
    17:00 -4°C° 0.1 mm 5 mps 731 mmHg 84%
    18:00 -4°C° 0.1 mm 5 mps 732 mmHg 82%
    19:00 -5°C° 0.1 mm 5 mps 732 mmHg 80%
    20:00 -5°C° 0.1 mm 5 mps 733 mmHg 78%
    21:00 -5°C° 0 mm 5 mps 733 mmHg 74%
    22:00 -6°C° 0 mm 5 mps 734 mmHg 70%
    23:00 -6°C° 0 mm 5 mps 734 mmHg 66%

    23 January, Thursday

    Time Temperature Precipitation Wind Pressure Humidity
    00:00 -7°C° 0 mm 5 mps 735 mmHg 65%
    01:00 -7°C° 0 mm 5 mps 735 mmHg 64%
    02:00 -7°C° 0 mm 5 mps 736 mmHg 63%
    03:00 -7°C° 0 mm 5 mps 736 mmHg 61%
    04:00 -7°C° 0 mm 5 mps 736 mmHg 59%
    05:00 -7°C° 0 mm 5 mps 736 mmHg 57%
    06:00 -7°C° 0 mm 5 mps 736 mmHg 63%
    07:00 -8°C° 0 mm 6 mps 737 mmHg 70%
    08:00 -8°C° 0 mm 6 mps 737 mmHg 77%
    09:00 -8°C° 0.1 mm 6 mps 738 mmHg 69%
    10:00 -8°C° 0.1 mm 6 mps 738 mmHg 61%
    11:00 -8°C° 0.1 mm 6 mps 739 mmHg 53%
    12:00 -8°C° 0 mm 6 mps 740 mmHg 54%
    13:00 -8°C° 0 mm 6 mps 740 mmHg 55%
    14:00 -7°C° 0 mm 5 mps 741 mmHg 55%
    15:00 -7°C° 0 mm 5 mps 742 mmHg 56%
    16:00 -8°C° 0 mm 5 mps 742 mmHg 58%
    17:00 -8°C° 0 mm 5 mps 743 mmHg 59%
    18:00 -8°C° 0 mm 4 mps 744 mmHg 58%
    19:00 -9°C° 0 mm 4 mps 744 mmHg 57%
    20:00 -9°C° 0 mm 4 mps 744 mmHg 57%
    21:00 -8°C° 0 mm 3 mps 745 mmHg 57%
    22:00 -8°C° 0 mm 3 mps 745 mmHg 57%
    23:00 -7°C° 0 mm 2 mps 745 mmHg 57%

    24 January, Friday

    Time Temperature Precipitation Wind Pressure Humidity
    00:00 -7°C° 0 mm 2 mps 745 mmHg 61%
    01:00 -8°C° 0 mm 3 mps 745 mmHg 65%
    02:00 -8°C° 0 mm 3 mps 745 mmHg 68%
    03:00 -7°C° 0 mm 3 mps 745 mmHg 72%
    04:00 -7°C° 0 mm 4 mps 744 mmHg 76%
    05:00 -7°C° 0 mm 4 mps 744 mmHg 79%
    06:00 -5°C° 0.1 mm 4 mps 743 mmHg 83%
    07:00 -6°C° 0.1 mm 5 mps 743 mmHg 87%
    08:00 -6°C° 0.1 mm 5 mps 743 mmHg 91%
    09:00 -5°C° 0 mm 5 mps 743 mmHg 89%
    10:00 -5°C° 0 mm 5 mps 742 mmHg 86%
    11:00 -4°C° 0 mm 5 mps 742 mmHg 84%
    12:00 -4°C° 0 mm 5 mps 742 mmHg 83%
    13:00 -4°C° 0 mm 5 mps 742 mmHg 82%
    14:00 -2°C° 0 mm 5 mps 742 mmHg 81%
    15:00 -2°C° 0 mm 5 mps 742 mmHg 83%
    16:00 -2°C° 0 mm 5 mps 742 mmHg 85%
    17:00 -1°C° 0 mm 4 mps 742 mmHg 88%
    18:00 -1°C° 0 mm 4 mps 742 mmHg 88%
    19:00 -1°C° 0 mm 4 mps 742 mmHg 89%
    20:00 0°C° 0 mm 4 mps 742 mmHg 90%
    21:00 -1°C° 0 mm 4 mps 742 mmHg 91%
    22:00 -1°C° 0 mm 4 mps 742 mmHg 92%
    23:00 -1°C° 0 mm 4 mps 742 mmHg 92%
    Show more